Year,Month,Day,Hour,Minute,Value (Times are PST for temperature in C)
2015,10,14,00,00,7.10
2015,10,14,00,01,7.10
2015,10,14,00,02,7.10
2015,10,14,00,03,7.10
2015,10,14,00,04,7.10
2015,10,14,00,05,7.10
2015,10,14,00,06,7.20
2015,10,14,00,07,7.20
2015,10,14,00,08,7.20
2015,10,14,00,09,7.20
2015,10,14,00,10,7.20
2015,10,14,00,11,7.20
2015,10,14,00,12,7.20
2015,10,14,00,13,7.10
2015,10,14,00,14,7.10
2015,10,14,00,15,7.10
2015,10,14,00,16,7.10
2015,10,14,00,17,7.10
2015,10,14,00,18,7.10
2015,10,14,00,19,7.10
2015,10,14,00,20,7.00
2015,10,14,00,21,7.00
2015,10,14,00,22,7.00
2015,10,14,00,23,7.00
2015,10,14,00,24,6.90
2015,10,14,00,25,6.90
2015,10,14,00,26,6.90
2015,10,14,00,27,6.90
2015,10,14,00,28,6.90
2015,10,14,00,29,6.90
2015,10,14,00,30,6.80
2015,10,14,00,31,6.80
2015,10,14,00,32,6.80
2015,10,14,00,33,6.80
2015,10,14,00,34,6.80
2015,10,14,00,35,6.80
2015,10,14,00,36,6.80
2015,10,14,00,37,6.80
2015,10,14,00,38,6.80
2015,10,14,00,39,6.80
2015,10,14,00,40,6.80
2015,10,14,00,41,6.80
2015,10,14,00,42,6.80
2015,10,14,00,43,6.70
2015,10,14,00,44,6.70
2015,10,14,00,45,6.70
2015,10,14,00,46,6.70
2015,10,14,00,47,6.70
2015,10,14,00,48,6.70
2015,10,14,00,49,6.70
2015,10,14,00,50,6.70
2015,10,14,00,51,6.70
2015,10,14,00,52,6.70
2015,10,14,00,53,6.70
2015,10,14,00,54,6.70
2015,10,14,00,55,6.70
2015,10,14,00,56,6.70
2015,10,14,00,57,6.70
2015,10,14,00,58,6.70
2015,10,14,00,59,6.70
2015,10,14,01,00,6.60
2015,10,14,01,01,6.60
2015,10,14,01,02,6.60
2015,10,14,01,03,6.60
2015,10,14,01,04,6.60
2015,10,14,01,05,6.60
2015,10,14,01,06,6.50
2015,10,14,01,07,6.50
2015,10,14,01,08,6.50
2015,10,14,01,09,6.40
2015,10,14,01,10,6.40
2015,10,14,01,11,6.40
2015,10,14,01,12,6.40
2015,10,14,01,13,6.40
2015,10,14,01,14,6.40
2015,10,14,01,15,6.40
2015,10,14,01,16,6.30
2015,10,14,01,17,6.30
2015,10,14,01,18,6.30
2015,10,14,01,19,6.30
2015,10,14,01,20,6.30
2015,10,14,01,21,6.30
2015,10,14,01,22,6.30
2015,10,14,01,23,6.30
2015,10,14,01,24,6.30
2015,10,14,01,25,6.30
2015,10,14,01,26,6.30
2015,10,14,01,27,6.30
2015,10,14,01,28,6.30
2015,10,14,01,29,6.20
2015,10,14,01,30,6.20
2015,10,14,01,31,6.20
2015,10,14,01,32,6.20
2015,10,14,01,33,6.20
2015,10,14,01,34,6.30
2015,10,14,01,35,6.30
2015,10,14,01,36,6.30
2015,10,14,01,37,6.30
2015,10,14,01,38,6.30
2015,10,14,01,39,6.40
2015,10,14,01,40,6.50
2015,10,14,01,41,6.50
2015,10,14,01,42,6.60
2015,10,14,01,43,6.60
2015,10,14,01,44,6.70
2015,10,14,01,45,6.70
2015,10,14,01,46,6.70
2015,10,14,01,47,6.70
2015,10,14,01,48,6.70
2015,10,14,01,49,6.70
2015,10,14,01,50,6.80
2015,10,14,01,51,6.80
2015,10,14,01,52,6.80
2015,10,14,01,53,6.80
2015,10,14,01,54,6.80
2015,10,14,01,55,6.80
2015,10,14,01,56,6.80
2015,10,14,01,57,6.80
2015,10,14,01,58,6.80
2015,10,14,01,59,6.80
2015,10,14,02,00,6.80
2015,10,14,02,01,6.90
2015,10,14,02,02,6.90
2015,10,14,02,03,6.90
2015,10,14,02,04,6.90
2015,10,14,02,05,6.90
2015,10,14,02,06,6.90
2015,10,14,02,07,6.90
2015,10,14,02,08,6.90
2015,10,14,02,09,6.90
2015,10,14,02,10,6.80
2015,10,14,02,11,6.80
2015,10,14,02,12,6.80
2015,10,14,02,13,6.80
2015,10,14,02,14,6.80
2015,10,14,02,15,6.80
2015,10,14,02,16,6.70
2015,10,14,02,17,6.70
2015,10,14,02,18,6.70
2015,10,14,02,19,6.70
2015,10,14,02,20,6.70
2015,10,14,02,21,6.70
2015,10,14,02,22,6.70
2015,10,14,02,23,6.70
2015,10,14,02,24,6.70
2015,10,14,02,25,6.70
2015,10,14,02,26,6.70
2015,10,14,02,27,6.80
2015,10,14,02,28,6.80
2015,10,14,02,29,6.80
2015,10,14,02,30,6.80
2015,10,14,02,31,6.80
2015,10,14,02,32,6.80
2015,10,14,02,33,6.80
2015,10,14,02,34,6.80
2015,10,14,02,35,6.80
2015,10,14,02,36,6.80
2015,10,14,02,37,6.80
2015,10,14,02,38,6.80
2015,10,14,02,39,6.80
2015,10,14,02,40,6.80
2015,10,14,02,41,6.80
2015,10,14,02,42,6.80
2015,10,14,02,43,6.80
2015,10,14,02,44,6.80
2015,10,14,02,45,6.80
2015,10,14,02,46,6.80
2015,10,14,02,47,6.80
2015,10,14,02,48,6.80
2015,10,14,02,49,6.80
2015,10,14,02,50,6.80
2015,10,14,02,51,6.80
2015,10,14,02,52,6.80
2015,10,14,02,53,6.80
2015,10,14,02,54,6.80
2015,10,14,02,55,6.80
2015,10,14,02,56,6.80
2015,10,14,02,57,6.90
2015,10,14,02,58,6.90
2015,10,14,02,59,6.90
2015,10,14,03,00,6.90
2015,10,14,03,01,6.90
2015,10,14,03,02,6.80
2015,10,14,03,03,6.80
2015,10,14,03,04,6.80
2015,10,14,03,05,6.70
2015,10,14,03,06,6.70
2015,10,14,03,07,6.60
2015,10,14,03,08,6.60
2015,10,14,03,09,6.60
2015,10,14,03,10,6.50
2015,10,14,03,11,6.50
2015,10,14,03,12,6.40
2015,10,14,03,13,6.40
2015,10,14,03,14,6.40
2015,10,14,03,15,6.40
2015,10,14,03,16,6.40
2015,10,14,03,17,6.40
2015,10,14,03,18,6.40
2015,10,14,03,19,6.40
2015,10,14,03,20,6.40
2015,10,14,03,21,6.50
2015,10,14,03,22,6.50
2015,10,14,03,23,6.50
2015,10,14,03,24,6.50
2015,10,14,03,25,6.50
2015,10,14,03,26,6.50
2015,10,14,03,27,6.60
2015,10,14,03,28,6.60
2015,10,14,03,29,6.60
2015,10,14,03,30,6.60
2015,10,14,03,31,6.60
2015,10,14,03,32,6.60
2015,10,14,03,33,6.70
2015,10,14,03,34,6.70
2015,10,14,03,35,6.70
2015,10,14,03,36,6.70
2015,10,14,03,37,6.70
2015,10,14,03,38,6.70
2015,10,14,03,39,6.70
2015,10,14,03,40,6.70
2015,10,14,03,41,6.70
2015,10,14,03,42,6.70
2015,10,14,03,43,6.70
2015,10,14,03,44,6.70
2015,10,14,03,45,6.70
2015,10,14,03,46,6.70
2015,10,14,03,47,6.70
2015,10,14,03,48,6.70
2015,10,14,03,49,6.70
2015,10,14,03,50,6.70
2015,10,14,03,51,6.70
2015,10,14,03,52,6.70
2015,10,14,03,53,6.70
2015,10,14,03,54,6.80
2015,10,14,03,55,6.80
2015,10,14,03,56,6.80
2015,10,14,03,57,6.80
2015,10,14,03,58,6.80
2015,10,14,03,59,6.80
2015,10,14,04,00,6.80
2015,10,14,04,01,6.80
2015,10,14,04,02,6.90
2015,10,14,04,03,6.90
2015,10,14,04,04,6.90
2015,10,14,04,05,6.90
2015,10,14,04,06,7.00
2015,10,14,04,07,7.00
2015,10,14,04,08,7.00
2015,10,14,04,09,7.10
2015,10,14,04,10,7.10
2015,10,14,04,11,7.10
2015,10,14,04,12,7.10
2015,10,14,04,13,7.10
2015,10,14,04,14,7.10
2015,10,14,04,15,7.10
2015,10,14,04,16,7.10
2015,10,14,04,17,7.10
2015,10,14,04,18,7.10
2015,10,14,04,19,7.10
2015,10,14,04,20,7.10
2015,10,14,04,21,7.10
2015,10,14,04,22,7.10
2015,10,14,04,23,7.10
2015,10,14,04,24,7.10
2015,10,14,04,25,7.10
2015,10,14,04,26,7.10
2015,10,14,04,27,7.10
2015,10,14,04,28,7.10
2015,10,14,04,29,7.10
2015,10,14,04,30,7.10
2015,10,14,04,31,7.10
2015,10,14,04,32,7.10
2015,10,14,04,33,7.10
2015,10,14,04,34,7.10
2015,10,14,04,35,7.10
2015,10,14,04,36,7.10
2015,10,14,04,37,7.10
2015,10,14,04,38,7.20
2015,10,14,04,39,7.20
2015,10,14,04,40,7.20
2015,10,14,04,41,7.20
2015,10,14,04,42,7.10
2015,10,14,04,43,7.10
2015,10,14,04,44,7.10
2015,10,14,04,45,7.10
2015,10,14,04,46,7.00
2015,10,14,04,47,7.00
2015,10,14,04,48,7.00
2015,10,14,04,49,7.00
2015,10,14,04,50,7.00
2015,10,14,04,51,7.00
2015,10,14,04,52,7.00
2015,10,14,04,53,7.00
2015,10,14,04,54,7.10
2015,10,14,04,55,7.10
2015,10,14,04,56,7.10
2015,10,14,04,57,7.10
2015,10,14,04,58,7.10
2015,10,14,04,59,7.10
2015,10,14,05,00,7.10
2015,10,14,05,01,7.20
2015,10,14,05,02,7.20
2015,10,14,05,03,7.20
2015,10,14,05,04,7.20
2015,10,14,05,05,7.20
2015,10,14,05,06,7.20
2015,10,14,05,07,7.20
2015,10,14,05,08,7.30
2015,10,14,05,09,7.30
2015,10,14,05,10,7.30
2015,10,14,05,11,7.30
2015,10,14,05,12,7.30
2015,10,14,05,13,7.30
2015,10,14,05,14,7.30
2015,10,14,05,15,7.30
2015,10,14,05,16,7.40
2015,10,14,05,17,7.40
2015,10,14,05,18,7.40
2015,10,14,05,19,7.40
2015,10,14,05,20,7.40
2015,10,14,05,21,7.40
2015,10,14,05,22,7.40
2015,10,14,05,23,7.40
2015,10,14,05,24,7.40
2015,10,14,05,25,7.40
2015,10,14,05,26,7.40
2015,10,14,05,27,7.40
2015,10,14,05,28,7.40
2015,10,14,05,29,7.50
2015,10,14,05,30,7.50
2015,10,14,05,31,7.50
2015,10,14,05,32,7.50
2015,10,14,05,33,7.50
2015,10,14,05,34,7.50
2015,10,14,05,35,7.50
2015,10,14,05,36,7.50
2015,10,14,05,37,7.50
2015,10,14,05,38,7.50
2015,10,14,05,39,7.50
2015,10,14,05,40,7.50
2015,10,14,05,41,7.50
2015,10,14,05,42,7.50
2015,10,14,05,43,7.60
2015,10,14,05,44,7.60
2015,10,14,05,45,7.60
2015,10,14,05,46,7.60
2015,10,14,05,47,7.60
2015,10,14,05,48,7.60
2015,10,14,05,49,7.60
2015,10,14,05,50,7.60
2015,10,14,05,51,7.60
2015,10,14,05,52,7.60
2015,10,14,05,53,7.70
2015,10,14,05,54,7.70
2015,10,14,05,55,7.70
2015,10,14,05,56,7.70
2015,10,14,05,57,7.70
2015,10,14,05,58,7.70
2015,10,14,05,59,7.70
2015,10,14,06,00,7.80
2015,10,14,06,01,7.80
2015,10,14,06,02,7.80
2015,10,14,06,03,7.80
2015,10,14,06,04,7.80
2015,10,14,06,05,7.80
2015,10,14,06,06,7.80
2015,10,14,06,07,7.80
2015,10,14,06,08,7.80
2015,10,14,06,09,7.80
2015,10,14,06,10,7.80
2015,10,14,06,11,7.80
2015,10,14,06,12,7.80
2015,10,14,06,13,7.80
2015,10,14,06,14,7.80
2015,10,14,06,15,7.80
2015,10,14,06,16,7.80
2015,10,14,06,17,7.80
2015,10,14,06,18,7.90
2015,10,14,06,19,7.90
2015,10,14,06,20,7.90
2015,10,14,06,21,7.90
2015,10,14,06,22,7.90
2015,10,14,06,23,7.90
2015,10,14,06,24,7.90
2015,10,14,06,25,7.90
2015,10,14,06,26,8.00
2015,10,14,06,27,8.00
2015,10,14,06,28,8.00
2015,10,14,06,29,8.00
2015,10,14,06,30,8.00
2015,10,14,06,31,8.00
2015,10,14,06,32,8.00
2015,10,14,06,33,8.00
2015,10,14,06,34,8.10
2015,10,14,06,35,8.10
2015,10,14,06,36,8.10
2015,10,14,06,37,8.10
2015,10,14,06,38,8.10
2015,10,14,06,39,8.10
2015,10,14,06,40,8.10
2015,10,14,06,41,8.10
2015,10,14,06,42,8.10
2015,10,14,06,43,8.10
2015,10,14,06,44,8.10
2015,10,14,06,45,8.10
2015,10,14,06,46,8.10
2015,10,14,06,47,8.10
2015,10,14,06,48,8.10
2015,10,14,06,49,8.20
2015,10,14,06,50,8.20
2015,10,14,06,51,8.20
2015,10,14,06,52,8.20
2015,10,14,06,53,8.20
2015,10,14,06,54,8.20
2015,10,14,06,55,8.20
2015,10,14,06,56,8.20
2015,10,14,06,57,8.20
2015,10,14,06,58,8.20
2015,10,14,06,59,8.20
2015,10,14,07,00,8.20
2015,10,14,07,01,8.20
2015,10,14,07,02,8.20
2015,10,14,07,03,8.20
2015,10,14,07,04,8.20
2015,10,14,07,05,8.20
2015,10,14,07,06,8.20
2015,10,14,07,07,8.20
2015,10,14,07,08,8.20
2015,10,14,07,09,8.20
2015,10,14,07,10,8.20
2015,10,14,07,11,8.20
2015,10,14,07,12,8.20
2015,10,14,07,13,8.20
2015,10,14,07,14,8.20
2015,10,14,07,15,8.10
2015,10,14,07,16,8.20
2015,10,14,07,17,8.20
2015,10,14,07,18,8.20
2015,10,14,07,19,8.20
2015,10,14,07,20,8.20
2015,10,14,07,21,8.20
2015,10,14,07,22,8.20
2015,10,14,07,23,8.20
2015,10,14,07,24,8.20
2015,10,14,07,25,8.20
2015,10,14,07,26,8.20
2015,10,14,07,27,8.20
2015,10,14,07,28,8.20
2015,10,14,07,29,8.20
2015,10,14,07,30,8.20
2015,10,14,07,31,8.20
2015,10,14,07,32,8.20
2015,10,14,07,33,8.30
2015,10,14,07,34,8.30
2015,10,14,07,35,8.30
2015,10,14,07,36,8.30
2015,10,14,07,37,8.30
2015,10,14,07,38,8.30
2015,10,14,07,39,8.30
2015,10,14,07,40,8.30
2015,10,14,07,41,8.30
2015,10,14,07,42,8.30
2015,10,14,07,43,8.30
2015,10,14,07,44,8.30
2015,10,14,07,45,8.30
2015,10,14,07,46,8.30
2015,10,14,07,47,8.30
2015,10,14,07,48,8.30
2015,10,14,07,49,8.30
2015,10,14,07,50,8.30
2015,10,14,07,51,8.30
2015,10,14,07,52,8.30
2015,10,14,07,53,8.30
2015,10,14,07,54,8.30
2015,10,14,07,55,8.30
2015,10,14,07,56,8.30
2015,10,14,07,57,8.30
2015,10,14,07,58,8.30
2015,10,14,07,59,8.30
2015,10,14,08,00,8.40
2015,10,14,08,01,8.40
2015,10,14,08,02,8.40
2015,10,14,08,03,8.40
2015,10,14,08,04,8.40
2015,10,14,08,05,8.40
2015,10,14,08,06,8.40
2015,10,14,08,07,8.40
2015,10,14,08,08,8.40
2015,10,14,08,09,8.40
2015,10,14,08,10,8.40
2015,10,14,08,11,8.40
2015,10,14,08,12,8.40
2015,10,14,08,13,8.40
2015,10,14,08,14,8.40
2015,10,14,08,15,8.40
2015,10,14,08,16,8.40
2015,10,14,08,17,8.40
2015,10,14,08,18,8.40
2015,10,14,08,19,8.40
2015,10,14,08,20,8.40
2015,10,14,08,21,8.40
2015,10,14,08,22,8.40
2015,10,14,08,23,8.40
2015,10,14,08,24,8.40
2015,10,14,08,25,8.40
2015,10,14,08,26,8.40
2015,10,14,08,27,8.40
2015,10,14,08,28,8.40
2015,10,14,08,29,8.40
2015,10,14,08,30,8.40
2015,10,14,08,31,8.40
2015,10,14,08,32,8.40
2015,10,14,08,33,8.40
2015,10,14,08,34,8.40
2015,10,14,08,35,8.40
2015,10,14,08,36,8.40
2015,10,14,08,37,8.50
2015,10,14,08,38,8.50
2015,10,14,08,39,8.50
2015,10,14,08,40,8.50
2015,10,14,08,41,8.50
2015,10,14,08,42,8.50
2015,10,14,08,43,8.50
2015,10,14,08,44,8.50
2015,10,14,08,45,8.50
2015,10,14,08,46,8.50
2015,10,14,08,47,8.60
2015,10,14,08,48,8.60
2015,10,14,08,49,8.60
2015,10,14,08,50,8.60
2015,10,14,08,51,8.60
2015,10,14,08,52,8.50
2015,10,14,08,53,8.50
2015,10,14,08,54,8.50
2015,10,14,08,55,8.50
2015,10,14,08,56,8.50
2015,10,14,08,57,8.60
2015,10,14,08,58,8.60
2015,10,14,08,59,8.60
2015,10,14,09,00,8.60
2015,10,14,09,01,8.60
2015,10,14,09,02,8.60
2015,10,14,09,03,8.60
2015,10,14,09,04,8.60
2015,10,14,09,05,8.60
2015,10,14,09,06,8.60
2015,10,14,09,07,8.60
2015,10,14,09,08,8.60
2015,10,14,09,09,8.60
2015,10,14,09,10,8.60
2015,10,14,09,11,8.60
2015,10,14,09,12,8.60
2015,10,14,09,13,8.60
2015,10,14,09,14,8.60
2015,10,14,09,15,8.60
2015,10,14,09,16,8.60
2015,10,14,09,17,8.60
2015,10,14,09,18,8.60
2015,10,14,09,19,8.60
2015,10,14,09,20,8.60
2015,10,14,09,21,8.60
2015,10,14,09,22,8.70
2015,10,14,09,23,8.70
2015,10,14,09,24,8.70
2015,10,14,09,25,8.70
2015,10,14,09,26,8.70
2015,10,14,09,27,8.70
2015,10,14,09,28,8.70
2015,10,14,09,29,8.80
2015,10,14,09,30,8.80
2015,10,14,09,31,8.80
2015,10,14,09,32,8.80
2015,10,14,09,33,8.80
2015,10,14,09,34,8.80
2015,10,14,09,35,8.80
2015,10,14,09,36,8.90
2015,10,14,09,37,8.90
2015,10,14,09,38,8.90
2015,10,14,09,39,8.90
2015,10,14,09,40,9.00
2015,10,14,09,41,9.00
2015,10,14,09,42,9.00
2015,10,14,09,43,9.00
2015,10,14,09,44,9.00
2015,10,14,09,45,9.00
2015,10,14,09,46,9.00
2015,10,14,09,47,9.00
2015,10,14,09,48,8.90
2015,10,14,09,49,9.00
2015,10,14,09,50,9.00
2015,10,14,09,51,9.00
2015,10,14,09,52,9.00
2015,10,14,09,53,9.00
2015,10,14,09,54,9.00
2015,10,14,09,55,9.10
2015,10,14,09,56,9.00
2015,10,14,09,57,9.00
2015,10,14,09,58,9.00
2015,10,14,09,59,9.00
2015,10,14,10,00,8.90
2015,10,14,10,01,8.90
2015,10,14,10,02,8.90
2015,10,14,10,03,8.90
2015,10,14,10,04,9.00
2015,10,14,10,05,9.00
2015,10,14,10,06,9.10
2015,10,14,10,07,9.10
2015,10,14,10,08,9.10
2015,10,14,10,09,9.10
2015,10,14,10,10,9.10
2015,10,14,10,11,9.10
2015,10,14,10,12,9.10
2015,10,14,10,13,9.20
2015,10,14,10,14,9.10
2015,10,14,10,15,9.10
2015,10,14,10,16,9.10
2015,10,14,10,17,9.10
2015,10,14,10,18,9.10
2015,10,14,10,19,9.10
2015,10,14,10,20,9.10
2015,10,14,10,21,9.10
2015,10,14,10,22,9.10
2015,10,14,10,23,9.10
2015,10,14,10,24,9.10
2015,10,14,10,25,9.10
2015,10,14,10,26,9.20
2015,10,14,10,27,9.20
2015,10,14,10,28,9.20
2015,10,14,10,29,9.20
2015,10,14,10,30,9.30
2015,10,14,10,31,9.30
2015,10,14,10,32,9.30
2015,10,14,10,33,9.30
2015,10,14,10,34,9.30
2015,10,14,10,35,9.30
2015,10,14,10,36,9.40
2015,10,14,10,37,9.40
2015,10,14,10,38,9.40
2015,10,14,10,39,9.40
2015,10,14,10,40,9.40
2015,10,14,10,41,9.40
2015,10,14,10,42,9.40
2015,10,14,10,43,9.40
2015,10,14,10,44,9.50
2015,10,14,10,45,9.50
2015,10,14,10,46,9.50
2015,10,14,10,47,9.60
2015,10,14,10,48,9.60
2015,10,14,10,49,9.60
2015,10,14,10,50,9.60
2015,10,14,10,51,9.60
2015,10,14,10,52,9.60
2015,10,14,10,53,9.60
2015,10,14,10,54,9.60
2015,10,14,10,55,9.60
2015,10,14,10,56,9.60
2015,10,14,10,57,9.60
2015,10,14,10,58,9.60
2015,10,14,10,59,9.60
2015,10,14,11,00,9.60
2015,10,14,11,01,9.70
2015,10,14,11,02,9.70
2015,10,14,11,03,9.60
2015,10,14,11,04,9.70
2015,10,14,11,05,9.70
2015,10,14,11,06,9.70
2015,10,14,11,07,9.80
2015,10,14,11,08,9.80
2015,10,14,11,09,9.80
2015,10,14,11,10,9.80
2015,10,14,11,11,9.80
2015,10,14,11,12,9.80
2015,10,14,11,13,9.80
2015,10,14,11,14,9.90
2015,10,14,11,15,9.90
2015,10,14,11,16,9.90
2015,10,14,11,17,9.90
2015,10,14,11,18,9.90
2015,10,14,11,19,9.90
2015,10,14,11,20,9.90
2015,10,14,11,21,9.90
2015,10,14,11,22,9.90
2015,10,14,11,23,9.90
2015,10,14,11,24,9.90
2015,10,14,11,25,9.90
2015,10,14,11,26,9.90
2015,10,14,11,27,9.90
2015,10,14,11,28,9.90
2015,10,14,11,29,10.00
2015,10,14,11,30,10.00
2015,10,14,11,31,10.10
2015,10,14,11,32,10.10
2015,10,14,11,33,10.20
2015,10,14,11,34,10.20
2015,10,14,11,35,10.20
2015,10,14,11,36,10.20
2015,10,14,11,37,10.20
2015,10,14,11,38,10.20
2015,10,14,11,39,10.20
2015,10,14,11,40,10.30
2015,10,14,11,41,10.30
2015,10,14,11,42,10.30
2015,10,14,11,43,10.30
2015,10,14,11,44,10.30
2015,10,14,11,45,10.30
2015,10,14,11,46,10.40
2015,10,14,11,47,10.40
2015,10,14,11,48,10.50
2015,10,14,11,49,10.60
2015,10,14,11,50,10.70
2015,10,14,11,51,10.70
2015,10,14,11,52,10.80
2015,10,14,11,53,10.80
2015,10,14,11,54,10.80
2015,10,14,11,55,10.80
2015,10,14,11,56,10.80
2015,10,14,11,57,10.80
2015,10,14,11,58,10.80
2015,10,14,11,59,10.80
2015,10,14,12,00,10.90
2015,10,14,12,01,10.90
2015,10,14,12,02,11.00
2015,10,14,12,03,11.10
2015,10,14,12,04,11.20
2015,10,14,12,05,11.20
2015,10,14,12,06,11.20
2015,10,14,12,07,11.30
2015,10,14,12,08,11.30
2015,10,14,12,09,11.30
2015,10,14,12,10,11.40
2015,10,14,12,11,11.40
2015,10,14,12,12,11.50
2015,10,14,12,13,11.50
2015,10,14,12,14,11.50
2015,10,14,12,15,11.60
2015,10,14,12,16,11.60
2015,10,14,12,17,11.60
2015,10,14,12,18,11.50
2015,10,14,12,19,11.60
2015,10,14,12,20,11.60
2015,10,14,12,21,11.60
2015,10,14,12,22,11.60
2015,10,14,12,23,11.60
2015,10,14,12,24,11.60
2015,10,14,12,25,11.60
2015,10,14,12,26,11.60
2015,10,14,12,27,11.70
2015,10,14,12,28,11.70
2015,10,14,12,29,11.70
2015,10,14,12,30,11.70
2015,10,14,12,31,11.80
2015,10,14,12,32,11.80
2015,10,14,12,33,11.90
2015,10,14,12,34,11.90
2015,10,14,12,35,12.00
2015,10,14,12,36,12.10
2015,10,14,12,37,12.10
2015,10,14,12,38,12.20
2015,10,14,12,39,12.30
2015,10,14,12,40,12.30
2015,10,14,12,41,12.40
2015,10,14,12,42,12.40
2015,10,14,12,43,12.50
2015,10,14,12,44,12.60
2015,10,14,12,45,12.70
2015,10,14,12,46,12.70
2015,10,14,12,47,12.70
2015,10,14,12,48,12.70
2015,10,14,12,49,12.70
2015,10,14,12,50,12.80
2015,10,14,12,51,12.80
2015,10,14,12,52,12.80
2015,10,14,12,53,12.80
2015,10,14,12,54,12.80
2015,10,14,12,55,12.80
2015,10,14,12,56,12.80
2015,10,14,12,57,12.80
2015,10,14,12,58,12.90
2015,10,14,12,59,12.90
2015,10,14,13,00,13.00
2015,10,14,13,01,13.00
2015,10,14,13,02,13.10
2015,10,14,13,03,13.20
2015,10,14,13,04,13.30
2015,10,14,13,05,13.30
2015,10,14,13,06,13.30
2015,10,14,13,07,13.30
2015,10,14,13,08,13.30
2015,10,14,13,09,13.40
2015,10,14,13,10,13.40
2015,10,14,13,11,13.50
2015,10,14,13,12,13.50
2015,10,14,13,13,13.60
2015,10,14,13,14,13.70
2015,10,14,13,15,13.70
2015,10,14,13,16,13.70
2015,10,14,13,17,13.80
2015,10,14,13,18,13.90
2015,10,14,13,19,13.90
2015,10,14,13,20,13.90
2015,10,14,13,21,14.00
2015,10,14,13,22,14.10
2015,10,14,13,23,14.10
2015,10,14,13,24,14.10
2015,10,14,13,25,14.10
2015,10,14,13,26,14.10
2015,10,14,13,27,14.10
2015,10,14,13,28,14.10
2015,10,14,13,29,14.10
2015,10,14,13,30,14.20
2015,10,14,13,31,14.40
2015,10,14,13,32,14.40
2015,10,14,13,33,14.50
2015,10,14,13,34,14.60
2015,10,14,13,35,14.60
2015,10,14,13,36,14.70
2015,10,14,13,37,14.70
2015,10,14,13,38,14.80
2015,10,14,13,39,14.90
2015,10,14,13,40,15.00
2015,10,14,13,41,15.10
2015,10,14,13,42,15.20
2015,10,14,13,43,15.30
2015,10,14,13,44,15.30
2015,10,14,13,45,15.40
2015,10,14,13,46,15.40
2015,10,14,13,47,15.50
2015,10,14,13,48,15.50
2015,10,14,13,49,15.50
2015,10,14,13,50,15.60
2015,10,14,13,51,15.60
2015,10,14,13,52,15.60
2015,10,14,13,53,15.60
2015,10,14,13,54,15.70
2015,10,14,13,55,15.80
2015,10,14,13,56,15.90
2015,10,14,13,57,15.90
2015,10,14,13,58,15.90
2015,10,14,13,59,15.90
2015,10,14,14,00,15.90
2015,10,14,14,01,15.90
2015,10,14,14,02,15.90
2015,10,14,14,03,16.00
2015,10,14,14,04,16.00
2015,10,14,14,05,16.10
2015,10,14,14,06,16.10
2015,10,14,14,07,16.10
2015,10,14,14,08,16.20
2015,10,14,14,09,16.10
2015,10,14,14,10,16.10
2015,10,14,14,11,16.20
2015,10,14,14,12,16.20
2015,10,14,14,13,16.20
2015,10,14,14,14,16.30
2015,10,14,14,15,16.30
2015,10,14,14,16,16.30
2015,10,14,14,17,16.40
2015,10,14,14,18,16.40
2015,10,14,14,19,16.40
2015,10,14,14,20,16.40
2015,10,14,14,21,16.40
2015,10,14,14,22,16.40
2015,10,14,14,23,16.30
2015,10,14,14,24,16.30
2015,10,14,14,25,16.30
2015,10,14,14,26,16.30
2015,10,14,14,27,16.30
2015,10,14,14,28,16.30
2015,10,14,14,29,16.30
2015,10,14,14,30,16.30
2015,10,14,14,31,16.30
2015,10,14,14,32,16.30
2015,10,14,14,33,16.30
2015,10,14,14,34,16.30
2015,10,14,14,35,16.30
2015,10,14,14,36,16.20
2015,10,14,14,37,16.30
2015,10,14,14,38,16.30
2015,10,14,14,39,16.30
2015,10,14,14,40,16.30
2015,10,14,14,41,16.30
2015,10,14,14,42,16.30
2015,10,14,14,43,16.30
2015,10,14,14,44,16.30
2015,10,14,14,45,16.30
2015,10,14,14,46,16.30
2015,10,14,14,47,16.40
2015,10,14,14,48,16.40
2015,10,14,14,49,16.50
2015,10,14,14,50,16.50
2015,10,14,14,51,16.60
2015,10,14,14,52,16.60
2015,10,14,14,53,16.60
2015,10,14,14,54,16.70
2015,10,14,14,55,16.70
2015,10,14,14,56,16.70
2015,10,14,14,57,16.80
2015,10,14,14,58,16.80
2015,10,14,14,59,16.80
2015,10,14,15,00,16.80
2015,10,14,15,01,16.80
2015,10,14,15,02,16.80
2015,10,14,15,03,16.80
2015,10,14,15,04,16.90
2015,10,14,15,05,16.90
2015,10,14,15,06,16.90
2015,10,14,15,07,16.90
2015,10,14,15,08,16.90
2015,10,14,15,09,16.90
2015,10,14,15,10,17.00
2015,10,14,15,11,17.10
2015,10,14,15,12,17.10
2015,10,14,15,13,17.10
2015,10,14,15,14,17.20
2015,10,14,15,15,17.20
2015,10,14,15,16,17.30
2015,10,14,15,17,17.30
2015,10,14,15,18,17.30
2015,10,14,15,19,17.30
2015,10,14,15,20,17.30
2015,10,14,15,21,17.40
2015,10,14,15,22,17.40
2015,10,14,15,23,17.50
2015,10,14,15,24,17.60
2015,10,14,15,25,17.70
2015,10,14,15,26,17.70
2015,10,14,15,27,17.70
2015,10,14,15,28,17.70
2015,10,14,15,29,17.70
2015,10,14,15,30,17.70
2015,10,14,15,31,17.70
2015,10,14,15,32,17.70
2015,10,14,15,33,17.70
2015,10,14,15,34,17.70
2015,10,14,15,35,17.70
2015,10,14,15,36,17.70
2015,10,14,15,37,17.70
2015,10,14,15,38,17.70
2015,10,14,15,39,17.70
2015,10,14,15,40,17.70
2015,10,14,15,41,17.70
2015,10,14,15,42,17.70
2015,10,14,15,43,17.80
2015,10,14,15,44,17.80
2015,10,14,15,45,17.80
2015,10,14,15,46,17.80
2015,10,14,15,47,17.80
2015,10,14,15,48,17.80
2015,10,14,15,49,17.80
2015,10,14,15,50,17.80
2015,10,14,15,51,17.80
2015,10,14,15,52,17.80
2015,10,14,15,53,17.80
2015,10,14,15,54,17.80
2015,10,14,15,55,17.80
2015,10,14,15,56,17.80
2015,10,14,15,57,17.90
2015,10,14,15,58,17.90
2015,10,14,15,59,18.00
2015,10,14,16,00,18.10
2015,10,14,16,01,18.10
2015,10,14,16,02,18.10
2015,10,14,16,03,18.20
2015,10,14,16,04,18.20
2015,10,14,16,05,18.20
2015,10,14,16,06,18.20
2015,10,14,16,07,18.30
2015,10,14,16,08,18.30
2015,10,14,16,09,18.30
2015,10,14,16,10,18.40
2015,10,14,16,11,18.40
2015,10,14,16,12,18.40
2015,10,14,16,13,18.40
2015,10,14,16,14,18.40
2015,10,14,16,15,18.40
2015,10,14,16,16,18.40
2015,10,14,16,17,18.40
2015,10,14,16,18,18.50
2015,10,14,16,19,18.50
2015,10,14,16,20,18.60
2015,10,14,16,21,18.60
2015,10,14,16,22,18.60
2015,10,14,16,23,18.60
2015,10,14,16,24,18.60
2015,10,14,16,25,18.50
2015,10,14,16,26,18.40
2015,10,14,16,27,18.20
2015,10,14,16,28,18.10
2015,10,14,16,29,18.00
2015,10,14,16,30,18.00
2015,10,14,16,31,17.90
2015,10,14,16,32,17.80
2015,10,14,16,33,17.70
2015,10,14,16,34,17.70
2015,10,14,16,35,17.60
2015,10,14,16,36,17.60
2015,10,14,16,37,17.50
2015,10,14,16,38,17.50
2015,10,14,16,39,17.40
2015,10,14,16,40,17.30
2015,10,14,16,41,17.30
2015,10,14,16,42,17.30
2015,10,14,16,43,17.30
2015,10,14,16,44,17.30
2015,10,14,16,45,17.30
2015,10,14,16,46,17.30
2015,10,14,16,47,17.20
2015,10,14,16,48,17.20
2015,10,14,16,49,17.20
2015,10,14,16,50,17.20
2015,10,14,16,51,17.20
2015,10,14,16,52,17.20
2015,10,14,16,53,17.20
2015,10,14,16,54,17.20
2015,10,14,16,55,17.10
2015,10,14,16,56,17.10
2015,10,14,16,57,17.10
2015,10,14,16,58,17.10
2015,10,14,16,59,17.00
2015,10,14,17,00,17.00
2015,10,14,17,01,17.00
2015,10,14,17,02,16.90
2015,10,14,17,03,16.90
2015,10,14,17,04,16.80
2015,10,14,17,05,16.80
2015,10,14,17,06,16.80
2015,10,14,17,07,16.70
2015,10,14,17,08,16.70
2015,10,14,17,09,16.70
2015,10,14,17,10,16.60
2015,10,14,17,11,16.60
2015,10,14,17,12,16.50
2015,10,14,17,13,16.50
2015,10,14,17,14,16.40
2015,10,14,17,15,16.40
2015,10,14,17,16,16.40
2015,10,14,17,17,16.40
2015,10,14,17,18,16.30
2015,10,14,17,19,16.30
2015,10,14,17,20,16.30
2015,10,14,17,21,16.30
2015,10,14,17,22,16.20
2015,10,14,17,23,16.20
2015,10,14,17,24,16.20
2015,10,14,17,25,16.20
2015,10,14,17,26,16.10
2015,10,14,17,27,16.10
2015,10,14,17,28,16.10
2015,10,14,17,29,16.00
2015,10,14,17,30,16.00
2015,10,14,17,31,16.00
2015,10,14,17,32,15.90
2015,10,14,17,33,15.90
2015,10,14,17,34,15.80
2015,10,14,17,35,15.80
2015,10,14,17,36,15.80
2015,10,14,17,37,15.70
2015,10,14,17,38,15.70
2015,10,14,17,39,15.60
2015,10,14,17,40,15.60
2015,10,14,17,41,15.60
2015,10,14,17,42,15.50
2015,10,14,17,43,15.50
2015,10,14,17,44,15.40
2015,10,14,17,45,15.40
2015,10,14,17,46,15.40
2015,10,14,17,47,15.30
2015,10,14,17,48,15.30
2015,10,14,17,49,15.30